Location: Champignolles
(47.0543°N, 4.5663°E)
Time: 08:12:04
(UTC+00:00)

Cosmos 923 Rocket - Pass Details

Date: 18 April 2021
Orbit: 759 x 785 km, 74.0° (Epoch: 13 May)

Event Time Altitude Azimuth Distance (km) Brightness Sun altitude
Rises 01:10:21 0° 343° (NNW) 3,230 7.9 -28.8°
Reaches altitude 10° 01:12:57 10° 353° (N) 2,302 7.1 -28.6°
Maximum altitude 01:17:41 34° 58° (ENE) 1,246 5.5 -28.2°
Enters shadow 01:21:28 15° 117° (ESE) 1,989 6.1 -27.9°
